Temp
-6 -6 -6 -6 -6 -6 -6 -6 -6 -6 -6 -6 -6 -6 -6 -6 -5 -5 -5 -5 -5 -5 -5 -5 -5 -5 -5 -5 -5 -5 -5 -5 -6 -6 -6 -6 -6 -6 -6 -7 -7 -7 -7
-6 -6 -6 -6 -6 -6 -6 -6 -6 -6 -6 -6 -6 -6 -6 -6 -6 -5 -5 -5 -5 -5 -5 -5 -5 -5 -5 -5 -5 -5 -5 -5 -5 -6 -6 -6 -6 -6 -6 -7 -7 -7 -7
-7 -6 -6 -6 -6 -6 -6 -6 -6 -6 -6 -6 -6 -6 -6 -6 -6 -5 -5 -5 -5 -5 -5 -5 -5 -5 -5 -5 -5 -5 -5 -5 -5 -5 -6 -6 -6 -6 -6 -6 -7 -7 -7
-7 -7 -7 -7 -7 -7 -6 -6 -6 -6 -6 -6 -6 -6 -6 -6 -6 -6 -5 -5 -5 -5 -5 -5 -5 -5 -5 -5 -5 -5 -5 -5 -5 -5 -5 -6 -6 -6 -6 -6 -6 -7 -7
-7 -7 -6 -7 -7 -7 -7 -7 -6 -6 -6 -6 -6 -6 -6 -6 -6 -6 -6 -6 -5 -5 -5 -5 -5 -5 -5 -5 -5 -5 -5 -5 -5 -5 -5 -6 -6 -6 -6 -6 -6 -7 -7
-7 -7 -7 -7 -7 -7 -7 -7 -7 -7 -7 -7 -7 -7 -7 -6 -6 -6 -6 -6 -6 -6 -6 -5 -5 -5 -5 -5 -5 -5 -5 -5 -5 -6 -6 -6 -6 -6 -6 -6 -6 -6 -7
-7 -7 -7 -7 -7 -7 -7 -7 -7 -7 -7 -7 -7 -8 -7 -7 -7 -6 -6 -6 -6 -6 -6 -6 -6 -5 -5 -5 -5 -5 -5 -5 -6 -6 -6 -6 -6 -6 -6 -6 -6 -7 -7
-7 -7 -7 -7 -7 -8 -8 -7 -7 -7 -7 -7 -7 -8 -8 -8 -7 -7 -7 -7 -6 -6 -6 -6 -6 -6 -6 -6 -5 -5 -5 -6 -6 -6 -6 -6 -6 -6 -6 -6 -6 -7 -7
-7 -7 -7 -7 -7 -8 -8 -7 -8 -8 -7 -7 -7 -7 -8 -8 -8 -8 -7 -7 -7 -7 -7 -7 -6 -6 -6 -6 -6 -6 -6 -6 -6 -6 -6 -6 -6 -6 -6 -6 -6 -7 -7
-8 -7 -7 -7 -8 -7 -8 -8 -8 -8 -8 -7 -7 -7 -8 -7 -8 -8 -8 -8 -7 -7 -7 -7 -7 -7 -6 -6 -6 -6 -6 -6 -6 -6 -6 -6 -6 -6 -6 -6 -7 -7 -7
-8 -8 -8 -8 -8 -8 -8 -7 -8 -8 -8 -8 -8 -8 -8 -7 -7 -7 -8 -8 -8 -8 -7 -7 -7 -7 -7 -7 -7 -7 -7 -7 -6 -6 -6 -6 -6 -6 -6 -7 -7 -7 -7
-8 -8 -8 -8 -8 -8 -8 -8 -8 -8 -8 -8 -8 -8 -8 -8 -8 -7 -7 -8 -8 -8 -8 -8 -8 -7 -7 -7 -7 -7 -7 -7 -7 -7 -7 -7 -7 -7 -7 -7 -7 -7 -7
-8 -9 -8 -8 -8 -8 -8 -8 -8 -8 -8 -8 -8 -8 -8 -8 -8 -8 -8 -8 -8 -8 -8 -8 -8 -8 -8 -8 -7 -7 -8 -7 -7 -7 -7 -7 -7 -7 -7 -7 -7 -7 -7
-9 -9 -9 -9 -9 -9 -9 -9 -9 -8 -8 -8 -8 -8 -8 -8 -8 -8 -8 -8 -8 -8 -8 -8 -8 -8 -8 -8 -8 -8 -8 -8 -8 -8 -8 -8 -7 -8 -8 -8 -7 -7 -7
-9 -9 -9 -9 -9 -9 -9 -9 -9 -8 -9 -9 -9 -8 -8 -9 -8 -8 -8 -8 -8 -8 -8 -8 -8 -8 -8 -8 -9 -9 -9 -8 -8 -8 -8 -8 -8 -8 -8 -8 -8 -8 -8
-10 -9 -10 -9 -9 -9 -9 -9 -9 -9 -9 -8 -9 -9 -9 -9 -9 -9 -8 -9 -8 -8 -8 -9 -8 -8 -8 -8 -9 -9 -9 -9 -9 -9 -9 -9 -9 -9 -9 -9 -8 -8 -8
-10 -10 -10 -9 -9 -9 -9 -9 -9 -10 -10 -9 -9 -9 -9 -9 -9 -9 -9 -9 -9 -9 -9 -8 -8 -9 -9 -9 -9 -9 -9 -9 -9 -9 -9 -9 -9 -9 -9 -9 -9 -9 -9
-10 -10 -10 -10 -10 -9 -9 -10 -9 -10 -10 -10 -9 -9 -10 -9 -10 -10 -9 -9 -9 -9 -9 -9 -8 -8 -8 -8 -8 -8 -8 -9 -9 -9 -9 -10 -10 -10 -10 -10 -10 -10 -9
-11 -11 -11 -11 -10 -10 -10 -10 -10 -10 -10 -10 -10 -10 -10 -10 -10 -10 -10 -10 -9 -9 -10 -10 -10 -9 -9 -9 -8 -8 -9 -9 -9 -9 -9 -9 -10 -10 -10 -10 -10 -10 -11
-11 -11 -11 -11 -11 -11 -10 -10 -10 -10 -10 -11 -10 -10 -10 -10 -10 -11 -10 -10 -10 -10 -10 -10 -10 -9 -9 -9 -9 -9 -10 -9 -9 -9 -10 -9 -10 -10 -10 -10 -11 -11 -11
-11 -11 -11 -11 -11 -11 -11 -11 -10 -10 -10 -11 -11 -11 -11 -11 -10 -11 -10 -11 -10 -10 -10 -10 -10 -10 -10 -10 -10 -10 -10 -10 -10 -11 -11 -10 -10 -11 -10 -11 -11 -10 -10
-12 -12 -12 -12 -12 -12 -12 -11 -11 -10 -11 -11 -11 -12 -12 -11 -11 -11 -11 -11 -10 -10 -11 -10 -10 -10 -10 -10 -10 -11 -11 -10 -11 -11 -11 -11 -11 -11 -11 -11 -11 -11 -11
-13 -13 -13 -12 -12 -12 -12 -12 -12 -11 -10 -11 -11 -11 -11 -12 -12 -11 -11 -12 -11 -11 -11 -11 -11 -11 -11 -11 -11 -10 -11 -11 -11 -11 -11 -11 -11 -11 -11 -11 -11 -10 -11
-16 -15 -14 -14 -13 -13 -13 -12 -12 -12 -12 -11 -11 -11 -11 -12 -12 -12 -12 -12 -12 -11 -11 -11 -12 -11 -11 -12 -11 -11 -11 -11 -11 -11 -11 -11 -11 -11 -11 -11 -11 -11 -11
-16 -16 -16 -16 -17 -16 -14 -13 -13 -12 -12 -12 -12 -12 -12 -12 -12 -13 -13 -12 -12 -12 -12 -11 -11 -11 -11 -11 -12 -12 -12 -11 -11 -11 -11 -11 -11 -11 -11 -11 -11 -11 -11
-16 -16 -16 -17 -17 -17 -17 -16 -14 -14 -13 -12 -12 -12 -13 -13 -12 -13 -13 -13 -13 -12 -12 -12 -12 -12 -12 -12 -12 -12 -11 -11 -11 -12 -11 -12 -11 -11 -11 -10 -11 -11 -12
Height
5859 5861 5862 5864 5865 5867 5869 5869 5870 5871 5872 5873 5874 5874 5875 5875 5875 5876 5876 5876 5876 5875 5875 5875 5875 5874 5874 5874 5874 5874 5874 5875 5875 5875 5875 5875 5875 5875 5875 5875 5874 5873 5872
5857 5858 5858 5860 5862 5863 5865 5867 5868 5869 5870 5871 5872 5873 5874 5874 5874 5874 5876 5876 5875 5875 5874 5874 5874 5874 5874 5874 5873 5874 5874 5874 5874 5874 5875 5874 5874 5874 5874 5874 5874 5873 5872
5854 5856 5856 5857 5858 5860 5861 5863 5865 5866 5868 5869 5870 5871 5872 5873 5873 5873 5874 5874 5875 5874 5874 5873 5874 5873 5874 5873 5874 5874 5874 5874 5873 5873 5874 5874 5873 5873 5873 5873 5872 5872 5872
5851 5853 5854 5855 5855 5857 5857 5859 5860 5862 5864 5866 5867 5868 5869 5870 5871 5871 5872 5872 5873 5873 5873 5873 5873 5873 5873 5873 5873 5873 5874 5873 5873 5873 5873 5873 5872 5872 5872 5872 5872 5871 5871
5848 5849 5851 5852 5852 5854 5855 5855 5856 5857 5859 5860 5862 5864 5866 5867 5868 5869 5869 5870 5871 5872 5872 5872 5872 5872 5872 5872 5872 5872 5872 5872 5872 5872 5871 5872 5872 5871 5871 5871 5871 5870 5870
5844 5846 5847 5848 5849 5850 5851 5852 5853 5854 5854 5856 5858 5860 5863 5864 5865 5866 5867 5868 5868 5869 5870 5870 5870 5870 5870 5870 5870 5870 5870 5870 5870 5870 5870 5870 5870 5870 5870 5869 5869 5868 5868
5838 5841 5843 5844 5845 5846 5847 5849 5850 5851 5851 5851 5852 5855 5858 5860 5861 5863 5864 5865 5865 5866 5867 5867 5868 5868 5869 5869 5869 5868 5868 5868 5869 5869 5869 5868 5868 5868 5868 5868 5867 5867 5867
5832 5835 5837 5840 5841 5842 5844 5846 5847 5848 5849 5849 5849 5850 5852 5855 5857 5859 5861 5861 5861 5863 5864 5864 5865 5865 5866 5867 5867 5867 5867 5867 5867 5867 5867 5866 5866 5866 5865 5865 5865 5865 5864
5826 5828 5831 5834 5836 5838 5840 5841 5843 5844 5845 5846 5847 5848 5848 5850 5852 5854 5856 5856 5857 5859 5860 5861 5862 5862 5863 5863 5864 5864 5865 5865 5864 5864 5864 5863 5863 5862 5862 5862 5862 5862 5861
5819 5821 5823 5827 5829 5833 5835 5836 5837 5839 5840 5841 5843 5845 5846 5847 5847 5848 5850 5852 5853 5854 5856 5857 5857 5858 5859 5859 5860 5860 5861 5861 5862 5861 5861 5860 5859 5859 5859 5859 5859 5859 5858
5811 5813 5816 5819 5822 5824 5828 5831 5832 5833 5836 5837 5838 5840 5841 5842 5842 5843 5845 5846 5847 5849 5851 5852 5853 5854 5855 5855 5856 5856 5857 5857 5858 5858 5858 5858 5857 5857 5856 5856 5856 5856 5855
5804 5806 5808 5811 5814 5817 5820 5823 5825 5827 5830 5832 5833 5835 5837 5838 5839 5840 5840 5840 5842 5843 5845 5847 5848 5849 5850 5851 5852 5852 5853 5853 5854 5854 5854 5854 5854 5853 5853 5853 5853 5852 5852
5796 5798 5800 5802 5806 5808 5811 5815 5817 5820 5822 5825 5827 5829 5831 5833 5835 5836 5836 5836 5837 5838 5839 5840 5842 5843 5845 5846 5847 5847 5847 5848 5849 5849 5849 5849 5849 5849 5849 5849 5848 5848 5847
5788 5790 5792 5794 5796 5799 5801 5805 5808 5811 5814 5817 5820 5822 5824 5826 5828 5830 5831 5833 5833 5834 5834 5835 5835 5836 5838 5839 5840 5841 5842 5842 5843 5844 5844 5844 5844 5844 5844 5844 5843 5842 5841
5780 5780 5782 5784 5787 5790 5792 5794 5798 5802 5805 5808 5812 5815 5817 5819 5821 5822 5824 5827 5828 5830 5829 5830 5830 5831 5831 5833 5833 5835 5836 5836 5837 5837 5838 5838 5839 5839 5838 5838 5837 5836 5835
5771 5772 5774 5775 5778 5780 5782 5784 5788 5792 5796 5797 5802 5806 5809 5811 5813 5815 5816 5819 5821 5823 5824 5824 5825 5825 5826 5827 5827 5828 5829 5830 5831 5831 5831 5832 5832 5832 5832 5832 5831 5830 5829
5761 5762 5765 5767 5768 5771 5773 5774 5777 5781 5785 5789 5791 5794 5798 5801 5804 5806 5808 5810 5814 5814 5816 5817 5818 5818 5819 5820 5820 5821 5822 5822 5824 5823 5823 5824 5825 5825 5825 5825 5825 5824 5822
5750 5751 5753 5755 5758 5760 5762 5763 5766 5770 5774 5778 5781 5783 5786 5790 5794 5797 5800 5802 5805 5806 5809 5809 5809 5811 5812 5813 5813 5814 5814 5815 5816 5816 5816 5817 5817 5817 5817 5816 5816 5816 5815
5737 5739 5740 5741 5744 5746 5750 5752 5753 5756 5760 5766 5769 5773 5776 5781 5784 5788 5792 5793 5796 5799 5800 5801 5802 5803 5804 5805 5805 5807 5808 5808 5809 5809 5809 5809 5809 5809 5808 5808 5806 5806 5806
5723 5724 5725 5726 5728 5730 5734 5739 5742 5743 5747 5751 5756 5761 5765 5771 5775 5779 5783 5786 5787 5790 5791 5793 5794 5794 5795 5796 5797 5798 5799 5801 5801 5802 5803 5802 5801 5800 5800 5798 5798 5797 5796
5705 5706 5707 5708 5709 5712 5717 5723 5728 5732 5735 5737 5743 5747 5753 5758 5763 5769 5773 5777 5777 5779 5781 5783 5784 5786 5787 5787 5788 5791 5790 5792 5793 5796 5794 5793 5793 5793 5791 5790 5789 5789 5789
5686 5687 5688 5690 5692 5695 5699 5704 5709 5716 5722 5725 5728 5734 5740 5745 5748 5754 5759 5766 5767 5769 5772 5773 5775 5777 5778 5779 5780 5779 5783 5783 5785 5783 5785 5785 5784 5784 5783 5781 5780 5779 5779
5663 5664 5666 5669 5671 5675 5680 5684 5689 5697 5707 5712 5716 5722 5727 5731 5734 5740 5746 5751 5757 5760 5764 5762 5764 5767 5769 5770 5771 5771 5772 5775 5773 5775 5776 5776 5775 5772 5773 5769 5770 5768 5768
5640 5641 5643 5645 5649 5652 5657 5664 5670 5680 5689 5696 5701 5707 5712 5716 5721 5727 5733 5738 5744 5748 5751 5753 5754 5755 5757 5761 5761 5764 5763 5764 5763 5765 5763 5764 5764 5760 5759 5758 5756 5755 5756
5627 5626 5625 5626 5628 5630 5635 5643 5651 5661 5671 5676 5683 5691 5696 5701 5707 5713 5717 5722 5729 5735 5739 5743 5742 5745 5747 5749 5752 5754 5755 5754 5752 5749 5752 5749 5752 5749 5743 5744 5742 5743 5745
5615 5613 5612 5610 5612 5617 5621 5625 5635 5642 5651 5659 5667 5674 5681 5689 5695 5700 5703 5708 5714 5721 5726 5729 5731 5734 5737 5739 5741 5742 5742 5744 5744 5739 5735 5737 5733 5734 5731 5728 5730 5731 5733
Wind_Speed
14 24 31 29 28 26 24 22 19 16 15 13 12 9 7 6 8 9 8 6 5 6 6 5 5 5 4 4 3 3 2 1 2 3 3 4 4 5 5 7 10 12 12
14 13 22 31 32 30 28 27 25 22 19 18 17 14 12 9 8 8 10 9 8 7 7 7 5 4 4 3 3 2 2 2 1 1 2 3 3 4 5 6 8 10 10
18 14 13 16 27 33 33 32 29 28 26 23 21 20 17 15 11 10 9 12 11 9 9 9 8 5 4 3 2 2 2 2 2 1 1 2 4 4 5 6 8 9 10
22 20 18 16 16 17 23 30 33 33 31 27 25 24 22 20 17 14 13 12 14 12 10 11 10 9 6 4 3 3 3 3 3 2 2 3 4 5 6 7 9 10 10
27 25 23 22 21 18 18 19 23 32 35 32 30 28 26 24 22 19 17 15 14 15 13 12 12 12 11 8 6 4 5 5 5 5 5 5 5 6 7 8 9 10 11
32 30 28 25 23 22 22 20 19 19 25 33 35 32 29 26 25 23 21 19 17 15 17 15 14 14 14 13 11 9 7 7 7 7 7 7 7 7 8 9 9 10 11
38 35 32 29 27 26 24 23 21 19 19 22 31 33 31 28 27 26 23 22 21 19 17 18 18 16 17 17 16 14 12 11 10 10 9 9 9 10 10 11 11 12 12
41 40 37 35 32 30 28 26 24 23 20 19 19 27 32 31 30 28 27 26 24 22 21 19 19 20 17 18 18 18 17 16 14 13 13 13 12 13 13 14 14 14 15
43 42 42 40 37 34 32 31 28 26 24 22 20 19 21 28 32 32 31 30 28 27 24 23 22 21 22 21 19 20 20 20 19 19 18 17 17 17 17 17 18 19 19
45 45 46 44 42 40 36 35 34 31 27 26 25 22 22 20 23 29 33 34 32 31 29 27 26 24 23 24 24 22 22 22 23 23 22 22 21 21 21 21 21 22 22
46 47 47 46 46 45 42 39 36 36 33 31 29 27 26 26 26 25 27 31 34 34 31 29 29 28 27 26 25 26 26 25 24 24 25 26 25 25 24 24 24 24 25
50 49 49 48 48 48 46 44 42 41 37 36 34 32 30 28 29 27 25 27 28 33 35 34 32 30 29 28 28 27 27 28 27 26 26 27 28 28 28 27 26 26 27
52 52 51 50 50 50 50 47 47 46 44 40 38 37 35 33 31 31 28 25 25 28 33 35 37 37 35 33 32 31 30 29 30 30 29 28 29 29 30 31 30 30 30
52 54 54 54 53 52 53 52 50 50 48 47 43 42 41 39 36 35 34 32 29 26 28 30 34 37 37 35 34 33 33 32 31 31 32 32 31 30 31 32 33 33 33
38 46 54 56 56 56 56 55 54 53 52 50 48 46 44 43 41 41 40 36 35 32 32 32 32 34 35 35 35 35 35 35 34 34 34 33 34 34 34 34 34 35 36
42 41 43 48 54 59 59 58 57 56 55 55 53 51 48 46 45 47 45 41 39 36 37 36 36 35 35 35 35 35 35 35 35 36 37 36 36 35 37 38 38 38 38
50 50 48 47 47 49 57 62 61 60 57 57 57 55 54 52 51 49 47 48 44 42 41 40 39 40 37 36 36 35 34 35 36 38 38 39 39 39 39 39 42 43 43
54 55 56 55 54 51 50 55 62 63 63 61 60 58 56 54 52 50 47 47 46 44 42 39 41 41 38 38 37 35 34 32 33 33 36 40 43 43 43 44 45 48 49
57 58 59 61 60 59 58 54 55 59 64 65 64 62 59 55 52 49 46 48 48 45 43 43 44 41 42 42 40 40 36 34 36 37 36 35 37 38 40 42 46 48 49
60 61 62 64 65 65 65 63 61 58 58 63 67 65 64 62 62 56 46 44 47 46 45 46 45 44 44 44 43 41 41 40 41 38 39 41 42 42 45 46 43 44 47
64 66 66 68 70 70 69 68 68 66 59 58 62 65 66 65 64 63 62 51 45 51 47 51 50 44 46 48 46 40 44 43 41 37 42 43 45 43 45 44 46 45 49
70 71 72 72 73 73 73 73 71 71 66 62 60 62 65 66 68 67 67 56 42 39 51 53 54 49 45 47 47 47 43 46 42 46 46 44 47 48 50 54 55 53 55
77 78 78 77 77 78 78 79 78 75 72 70 65 60 62 66 69 69 66 64 60 59 49 47 53 52 48 50 49 50 49 49 51 50 52 50 50 55 56 59 58 60 58
60 66 71 74 81 84 82 82 81 79 75 73 70 65 63 66 68 69 68 67 64 59 55 47 44 52 53 52 54 54 53 53 54 54 56 55 57 60 61 62 63 58 54
47 50 57 63 61 64 74 81 82 83 79 76 74 70 68 65 66 68 70 69 69 69 65 71 54 56 58 62 58 55 52 55 60 61 59 63 61 64 68 63 62 59 53
45 47 46 54 59 58 54 60 70 74 76 75 74 72 70 68 68 69 70 70 71 69 68 70 70 67 65 65 59 60 60 58 61 63 68 67 68 65 64 66 64 55 52
Wind_Direction
250 240 239 240 244 245 246 250 253 250 243 241 245 245 244 238 240 236 228 223 207 180 152 147 110 97 99 100 100 94 102 152 247 286 306 327 334 342 348 359 7 10 13
260 253 242 238 241 247 251 252 253 257 256 250 248 250 251 246 245 244 234 238 232 212 189 181 158 121 113 115 119 126 135 141 167 248 299 320 320 327 328 342 351 359 3
257 252 251 246 243 245 250 255 254 256 258 256 254 253 252 254 248 248 248 240 241 236 215 207 194 176 148 128 137 159 186 183 175 189 257 293 307 317 314 318 332 342 349
254 252 250 248 249 246 249 252 254 255 255 256 254 254 254 252 252 251 249 247 242 242 241 222 216 207 199 182 173 207 233 229 224 227 256 275 288 299 307 310 319 328 336
255 254 252 253 253 253 254 253 255 255 254 252 252 253 253 254 252 250 251 248 247 242 243 243 235 223 218 215 210 214 230 244 246 242 245 259 276 292 299 304 311 316 320
255 256 254 253 254 255 256 256 258 259 256 252 253 251 252 254 255 254 251 251 250 248 243 244 243 239 231 226 225 228 234 241 247 252 258 262 265 270 278 288 294 299 307
252 254 256 255 253 255 256 256 258 259 266 259 250 249 249 250 253 255 254 252 249 248 248 246 245 245 241 238 236 233 233 241 248 253 255 258 262 266 272 277 285 293 300
251 251 252 254 255 255 256 254 255 258 263 267 261 252 249 250 252 255 256 253 251 249 248 250 250 247 247 247 245 243 243 243 247 252 257 259 262 265 266 270 275 281 287
250 250 251 251 254 255 257 256 255 253 256 256 258 259 257 251 251 252 253 254 255 253 250 249 251 252 249 250 252 253 251 250 250 251 254 256 258 260 263 268 272 274 278
251 250 251 250 251 252 254 256 256 255 253 252 250 251 257 262 257 253 250 251 253 257 256 252 250 250 252 252 251 253 256 256 257 257 257 256 257 260 264 267 271 276 280
248 251 250 250 251 251 251 252 255 259 255 255 254 250 250 252 255 257 253 250 250 252 254 254 254 252 252 255 256 257 256 258 260 262 264 264 265 265 268 270 273 277 281
246 247 250 250 249 250 250 250 251 252 257 257 256 256 254 253 255 260 260 257 253 252 253 254 256 255 255 258 260 260 262 262 262 263 265 267 269 271 271 272 276 279 283
246 247 248 249 249 250 250 248 249 251 253 253 255 257 256 255 256 255 258 257 252 252 254 255 257 258 261 263 262 261 261 263 264 264 264 266 270 273 275 276 277 279 281
250 249 249 249 249 249 249 249 248 250 251 253 251 254 256 257 257 257 256 255 256 252 252 254 255 256 258 259 261 261 263 264 265 267 268 269 269 273 276 278 279 279 280
257 254 252 250 250 251 250 250 249 247 250 250 251 251 253 256 256 256 257 257 255 254 257 258 259 259 259 258 259 261 263 265 266 268 269 271 274 275 275 276 279 279 280
260 259 259 257 255 251 251 251 251 249 247 249 250 251 252 253 253 255 256 256 255 257 261 261 264 263 264 263 262 261 260 262 265 268 270 271 271 274 277 278 277 277 279
258 259 259 259 260 258 256 253 252 252 249 247 250 250 251 251 254 254 253 256 257 259 258 259 264 265 265 264 263 263 263 262 261 263 266 269 270 272 275 277 278 279 277
259 258 258 259 259 259 259 257 254 253 252 250 247 248 250 251 249 250 252 252 256 259 262 260 262 260 262 265 263 260 262 264 265 267 267 268 270 269 272 275 277 278 277
260 259 259 258 256 256 256 256 256 253 252 251 250 248 247 245 245 245 250 255 254 258 259 260 264 264 261 261 259 261 265 266 268 270 270 270 273 267 275 276 278 285 275
260 259 259 258 257 255 253 252 253 255 252 250 250 248 248 247 248 252 252 253 255 255 258 259 261 259 259 260 257 261 262 267 270 271 274 278 277 280 274 276 282 290 276
260 258 255 254 255 255 253 251 250 251 252 251 249 249 248 247 248 250 249 253 257 253 258 260 257 258 260 255 258 263 267 274 271 271 275 273 276 281 280 277 279 285 286
260 257 255 253 252 252 252 252 249 249 248 250 250 246 246 246 248 246 247 244 248 247 260 258 255 258 260 256 260 265 271 271 275 273 276 278 276 275 279 277 278 283 284
259 257 254 252 250 249 249 249 249 247 247 248 250 250 248 245 245 246 245 244 246 251 247 260 253 256 260 262 263 269 273 275 273 275 277 280 281 279 280 282 277 279 278
261 258 257 254 251 249 247 247 248 248 246 246 247 248 247 245 245 245 246 245 241 238 243 250 244 250 257 260 267 270 272 275 277 278 279 280 282 282 282 281 279 280 275
268 266 261 255 252 249 248 246 246 247 245 244 244 244 243 243 244 245 245 245 245 240 244 246 251 252 260 266 269 267 269 276 280 280 280 280 279 279 278 276 279 280 278
280 262 268 256 248 249 250 247 244 242 242 243 242 241 240 242 244 244 245 244 245 245 245 247 253 261 263 266 265 265 268 274 277 279 281 282 282 280 277 276 276 279 277